Regional Weather Roundup
Issued by NWS

Home | Current Version | Previous Version | Text Only | Print | Product List | Glossary On
Versions: 1 2 3 4 5 6 7 8 9 10 11 12 13 14 15 16 17 18 19 20 21 22 23 24 25 26 27 28 29 30 31 32 33 34 35 36 37 38 39 40 41 42 43 44 45 46 47 48 49 50
000
ASUS42 KKEY 212110
RWRKEY

FLORIDA REGIONAL WEATHER ROUNDUP FOR THE FLORIDA KEYS
NATIONAL WEATHER SERVICE KEY WEST FLORIDA
500 PM EDT MON AUG 21 2017

...SOUTH FLORIDA AND THE KEYS...

CITY           SKY/WX    TMP DP  RH WIND       PRES   REMARKS
FORT MYERS     MOSUNNY   92  74  55 E13       30.03R HX 101
SW REGIONAL AP MOSUNNY   92  68  45 E14       30.04R HX  96
NAPLES         PTSUNNY   90  72  55 E13       30.03R HX  97
MIAMI          PTSUNNY   84  76  76 E9        30.05S HX  93
WEST KENDALL   PTSUNNY   89  73  59 E13       30.05R HX  97
HOMESTEAD      MOSUNNY   89  78  69 NE15      30.03F HX 102
MARATHON       SUNNY     90  75  61 E13       30.01F HX 100
BOCA CHICA NAS PTSUNNY   90  77  65 E15       30.01F HX 103
KEY WEST INTL  SUNNY     89  74  60 E16       30.02S HX  98

...INTERNATIONAL WEATHER...

CITY           SKY/WX    TMP DP  RH WIND       PRES   REMARKS
NASSAU BAHAMAS PTSUNNY   86  79  79 NE7       30.01S HX  99
CANCUN MEXICO  LGT RAIN  75  75 100 E8        29.95R
COZUMEL MEXICO LGT RAIN  77  77 100 SE9       29.91S

ADJACENT COASTAL WATERS...

STATION/POSITION TIME  SKY/WX   TEMP    WIND        PRES    WAVE
                                AIR SEA DIR/SP/G            HT/PER
                 (UTC)          (F)     (DEG/KT/KT) (MB)    (FT/S)
PULASKI SHOAL LI 2100            87     110/ 16/ 18 1016.6R
SAND KEY         2050            85                 1017.0S
LONG KEY         NOT AVBL
MOLASSES REEF    2000            85 87   70/ 12/ 14 1016.9
FOWEY ROCKS      2000            85 87   80/ 13/ 14 1017.9F
Buoy 42097       2030               87                N/A     4/ 6

$$



USA.gov is the U.S. government's official web portal to all federal, state and local government web resources and services.